Location: El Centro
(32.7920°N, 115.5620°W)
Time: 23:14:37
(UTC-08:00)

Amateur Radio Satellites - All Passes

Search period start: 28 November 2014 22:44
Search period end: 29 November 2014 22:44
Location: El Centro, 32.7920°N, 115.5620°W

Satellite Date Start Highest point End Downlink Frequencies (MHz)
Time Altitude Azimuth
ISS 28 Nov 22:47:19 22:48:35 12° 330° (NNW) 22:49:51 145.825
CUBEBUG 1 28 Nov 22:48:30 22:52:38 38° 261° (W) 22:56:47 437.445
AISAT 28 Nov 22:50:20 22:52:17 13° 266° (W) 22:54:14 437.250
JUGNU 28 Nov 22:51:56 22:56:24 23° 177° (S) 23:00:53 437.505
POPSAT HIP 1 28 Nov 22:58:37 23:02:43 50° 285° (WNW) 23:06:47 437.405
SRMSAT 28 Nov 23:09:03 23:13:10 19° 170° (S) 23:17:19 437.500
TIGRISAT 28 Nov 23:09:33 23:13:21 28° 288° (WNW) 23:17:13 435.000
RS-15 28 Nov 23:13:52 23:24:00 37° 49° (NE) 23:34:27 29.354- 29.394
AUBIESAT-1 28 Nov 23:20:31 23:23:38 21° 64° (ENE) 23:26:57 437.475
DANDE 28 Nov 23:22:16 23:27:32 90° 84° (E) 23:34:37 436.750
BEESAT 28 Nov 23:24:43 23:27:44 17° 67° (ENE) 23:30:44 436.000
UNISAT 6 28 Nov 23:25:41 23:28:48 19° 291° (WNW) 23:31:57 437.425
M-CUBED/EXP-1 PRIME 28 Nov 23:27:39 23:31:09 28° 65° (ENE) 23:34:55 437.505
POLYITAN 1 28 Nov 23:35:10 23:38:09 19° 290° (WNW) 23:41:08 437.675
QB50P2 28 Nov 23:35:53 23:38:50 19° 291° (WNW) 23:41:46 145.880/145.840
TISAT 1 28 Nov 23:39:02 23:43:03 40° 261° (W) 23:47:04 437.305
DUCHIFAT 1 28 Nov 23:39:53 23:42:37 17° 291° (WNW) 23:45:21 145.980
SPROUT 28 Nov 23:59:42 00:03:22 27° 263° (W) 00:07:02 437.525
MaSat-1 29 Nov 00:00:25 00:02:41 42° 249° (WSW) 00:05:05 437.345
BUGSAT 1 29 Nov 00:05:47 00:05:59 10° 294° (WNW) 00:06:11 437.445
ITUPSAT 1 29 Nov 00:20:25 00:25:11 68° 75° (ENE) 00:29:59 437.325
Oscar 19 29 Nov 00:26:04 00:30:20 26° 96° (E) 00:34:35 437.125/150
CUSAT 1 29 Nov 00:26:06 00:30:20 22° 267° (W) 00:35:23 437.405
SWISSCUBE 29 Nov 00:29:59 00:34:48 85° 257° (WSW) 00:39:38 437.505
KKS-1 29 Nov 00:34:48 00:37:41 17° 68° (ENE) 00:40:35 437.445
JUGNU 29 Nov 00:40:33 00:44:49 21° 187° (S) 00:49:06 437.505
SO-50 29 Nov 00:53:44 00:55:21 12° 107° (ESE) 00:56:59 436.795
AUBIESAT-1 29 Nov 00:54:58 00:58:25 27° 260° (W) 01:02:08 437.475
SRMSAT 29 Nov 00:57:08 01:01:46 23° 181° (S) 01:06:24 437.500
BEESAT 29 Nov 01:00:41 01:05:11 41° 261° (W) 01:09:44 436.000
M-CUBED/EXP-1 PRIME 29 Nov 01:03:12 01:06:11 20° 262° (W) 01:09:22 437.505
YUBILEINY 29 Nov 01:22:04 01:30:36 57° 91° (E) 01:39:07 435.215
STARS 29 Nov 01:22:05 01:26:11 39° 73° (ENE) 01:30:17 437.465
RS-15 29 Nov 01:25:47 01:36:51 61° 248° (WSW) 01:48:26 29.354- 29.394
ITAMSAT 1 29 Nov 01:26:14 01:31:00 37° 99° (E) 01:35:45 435.822/435.867
HORYU 2 29 Nov 01:49:56 01:51:44 12° 93° (E) 01:53:32 437.375
Oscar 19 29 Nov 02:05:07 02:09:35 30° 290° (WNW) 02:14:03 437.125/150
KKS-1 29 Nov 02:09:59 02:14:02 34° 262° (W) 02:18:05 437.445
AO-7 29 Nov 02:16:07 02:19:12 12° 92° (E) 02:22:15 29.400- 29.500
Gurwin Techsat 1B 29 Nov 02:17:49 02:23:08 72° 102° (ESE) 02:28:24 435.225
JUGNU 29 Nov 02:30:56 02:33:11 12° 196° (SSW) 02:35:27 437.505
SO-50 29 Nov 02:30:57 02:35:19 53° 301° (WNW) 02:39:51 436.795
SRMSAT 29 Nov 02:46:20 02:50:21 19° 191° (S) 02:54:21 437.500
STARS 29 Nov 03:00:28 03:02:46 14° 266° (W) 03:05:05 437.465
PCSat 29 Nov 03:04:21 03:08:40 24° 55° (NE) 03:12:58 145.827
BEESAT 3 29 Nov 03:05:55 03:08:36 16° 52° (NE) 03:11:15 437.485
ITAMSAT 1 29 Nov 03:06:23 03:10:12 21° 293° (WNW) 03:14:00 435.822/435.867
YUBILEINY 29 Nov 03:20:47 03:27:45 26° 287° (WNW) 03:34:46 435.215
BEESAT 2 29 Nov 03:23:45 03:27:05 22° 54° (NE) 03:30:23 435.950
HORYU 2 29 Nov 03:24:16 03:28:36 47° 286° (WNW) 03:32:55 437.375
O/OREOS (USA 219) 29 Nov 03:33:35 03:35:58 14° 99° (E) 03:38:21 437.305
MOZHAYETS 4 29 Nov 03:38:40 03:43:03 47° 74° (ENE) 03:47:28
ISS 29 Nov 03:41:22 03:43:07 14° 31° (NNE) 03:44:51 145.825
Gurwin Techsat 1B 29 Nov 04:00:35 04:02:24 12° 296° (WNW) 04:04:14 435.225
AO-7 29 Nov 04:04:27 04:12:52 83° 107° (ESE) 04:21:14 29.400- 29.500
AIST 2 29 Nov 04:13:23 04:17:23 36° 57° (ENE) 04:21:18 435.215
JAS-2 29 Nov 04:14:24 04:20:21 34° 95° (E) 04:25:39 435.910
BEESAT 3 29 Nov 04:43:05 04:46:57 38° 247° (WSW) 04:50:46 437.485
PCSat 29 Nov 04:47:09 04:52:10 39° 251° (WSW) 04:57:08 145.827
BEESAT 2 29 Nov 05:01:48 05:05:18 26° 249° (WSW) 05:08:45 435.950
PRISM 29 Nov 05:10:39 05:14:51 86° 258° (WSW) 05:19:06 437.425
O/OREOS (USA 219) 29 Nov 05:10:46 05:14:58 39° 293° (WNW) 05:19:10 437.305
CUTE-I 29 Nov 05:13:00 05:17:22 26° 96° (E) 05:21:43 437.470
ISS 29 Nov 05:16:46 05:20:00 59° 227° (SW) 05:23:15 145.825
MOZHAYETS 4 29 Nov 05:18:25 05:20:28 13° 267° (W) 05:22:32
CUBESAT XI-V 29 Nov 05:29:55 05:34:28 51° 75° (ENE) 05:39:03 437.345
AIST 1 29 Nov 05:47:29 05:51:41 47° 81° (E) 05:55:50
STRAND 1 29 Nov 05:47:32 05:52:41 79° 76° (ENE) 05:57:50 437.568
AIST 2 29 Nov 05:53:05 05:55:39 16° 252° (WSW) 05:58:13 435.215
AO-7 29 Nov 05:59:16 06:04:37 19° 303° (WNW) 06:09:59 29.400- 29.500
JAS-2 29 Nov 05:59:28 06:05:14 31° 294° (WNW) 06:10:25 435.910
Cubesat XI-IV 29 Nov 06:11:50 06:17:09 78° 285° (WNW) 06:22:26 437.490
CUTE-I 29 Nov 06:52:45 06:57:22 31° 290° (WNW) 07:01:58 437.470
CUBESAT XI-V 29 Nov 07:10:14 07:12:08 12° 268° (W) 07:14:03 437.345
GONETS M04 29 Nov 07:12:39 07:21:18 65° 92° (E) 07:30:00
AIST 1 29 Nov 07:28:22 07:28:48 10° 275° (W) 07:29:14
CANX-2 29 Nov 07:35:13 07:37:36 15° 94° (E) 07:40:00 2200.000
CUTE 1.7 + AOD 2 29 Nov 08:08:03 08:11:57 33° 98° (E) 08:15:51 437.475
GOMX 1 29 Nov 08:08:22 08:11:43 23° 97° (E) 08:15:11 467.674
HO-68 29 Nov 08:16:39 08:23:37 52° 101° (ESE) 08:30:31 435.675
TIGRISAT 29 Nov 08:30:44 08:31:44 11° 66° (ENE) 08:32:44 435.000
DELFI C3 29 Nov 08:33:04 08:35:36 16° 94° (E) 08:38:06 145.870
SEEDS 29 Nov 08:36:01 08:40:17 65° 101° (E) 08:44:32 437.485
UNISAT 6 29 Nov 08:44:37 08:47:22 17° 69° (ENE) 08:50:06 437.425
AAUSAT CUBESAT 2 29 Nov 08:45:18 08:49:30 61° 101° (E) 08:53:42 437.432
DOVE 4 29 Nov 08:46:27 08:50:35 48° 100° (E) 08:54:53 437.250
UKube-1 29 Nov 08:49:26 08:53:01 25° 97° (E) 08:56:35 .
POLYITAN 1 29 Nov 08:49:50 08:51:47 13° 67° (ENE) 08:53:44 437.675
QB50P2 29 Nov 08:50:16 08:52:16 13° 68° (ENE) 08:54:16 145.880/145.840
DUCHIFAT 1 29 Nov 08:53:31 08:55:46 14° 68° (ENE) 08:58:00 145.980
CINEMA 3 29 Nov 08:55:01 08:58:59 35° 99° (E) 09:03:05 145.822/145.860
BRITE-PL 29 Nov 08:55:12 08:59:20 63° 284° (WNW) 09:03:37 437.365/2234.400
Oscar 11 29 Nov 08:57:28 09:01:34 39° 99° (E) 09:05:38 145.826/435.025
FUNcube-1 29 Nov 08:59:04 09:01:47 16° 95° (E) 09:04:33 145.935
COMPASS 1 29 Nov 09:03:14 09:07:28 68° 284° (WNW) 09:11:41 437.405
AISAT 29 Nov 09:09:00 09:10:51 12° 93° (E) 09:12:41 437.250
CANX-2 29 Nov 09:09:40 09:13:37 36° 287° (WNW) 09:17:34 2200.000
GONETS M04 29 Nov 09:12:07 09:18:40 23° 289° (WNW) 09:25:17
NANOSAT C BR1 29 Nov 09:12:16 09:15:41 24° 71° (ENE) 09:19:06 145.865
ANTELSAT 29 Nov 09:12:31 09:16:25 36° 73° (ENE) 09:20:20 437.575/2403.000
BUGSAT 1 29 Nov 09:13:52 09:17:01 21° 70° (ENE) 09:20:09 437.445
HUMSAT D 29 Nov 09:16:32 09:18:57 15° 94° (E) 09:21:22 437.325/437.525
QB50P1 29 Nov 09:22:19 09:26:05 32° 72° (ENE) 09:29:51 145.935-145.965
DX 1 29 Nov 09:28:12 09:32:33 80° 103° (ESE) 09:36:52 434.975-435.025
UWE-3 29 Nov 09:33:24 09:37:37 53° 100° (E) 09:41:56 435.000/436.395/437.385
CUBEBUG 2 29 Nov 09:40:59 09:45:19 78° 102° (ESE) 09:49:46 437.445
CUTE 1.7 + AOD 2 29 Nov 09:44:54 09:47:35 16° 291° (WNW) 09:50:16 437.475
GOMX 1 29 Nov 09:46:27 09:49:45 23° 288° (WNW) 09:53:09 467.674
POPSAT HIP 1 29 Nov 09:47:08 09:51:21 66° 76° (ENE) 09:55:34 437.405
ZACube-1 29 Nov 09:59:57 10:04:16 86° 283° (WNW) 10:08:39 437.345
TIGRISAT 29 Nov 10:03:53 10:08:01 50° 260° (W) 10:12:09 435.000
HO-68 29 Nov 10:05:14 10:10:51 26° 296° (WNW) 10:16:28 435.675
DELFI C3 29 Nov 10:07:15 10:10:55 31° 287° (WNW) 10:14:34 145.870
50 SAT 29 Nov 10:13:40 10:17:43 64° 101° (E) 10:21:47 437.505
VELOX 1 29 Nov 10:14:36 10:19:02 80° 102° (ESE) 10:23:25 145.980
UNISAT 6 29 Nov 10:20:06 10:23:54 31° 262° (W) 10:27:42 437.425
POLYITAN 1 29 Nov 10:23:18 10:27:20 42° 261° (W) 10:31:22 437.675
QB50P2 29 Nov 10:23:46 10:27:47 41° 261° (W) 10:31:49 145.880/145.840
UKube-1 29 Nov 10:25:42 10:29:01 22° 290° (WNW) 10:32:19 .
DOVE 4 29 Nov 10:26:36 10:27:58 11° 292° (WNW) 10:29:21 437.250
ESTCUBE 1 29 Nov 10:27:00 10:31:13 38° 99° (E) 10:35:23 437.505/2401.250
DUCHIFAT 1 29 Nov 10:27:18 10:31:16 38° 261° (W) 10:35:14 145.980
CINEMA 3 29 Nov 10:33:18 10:35:55 16° 290° (WNW) 10:38:36 145.822/145.860
FUNcube-1 29 Nov 10:34:19 10:38:10 33° 287° (WNW) 10:42:04 145.935
Oscar 11 29 Nov 10:34:59 10:37:21 15° 292° (WNW) 10:39:44 145.826/435.025
CUBEBUG 1 29 Nov 10:41:57 10:46:13 54° 100° (E) 10:50:26 437.445
AISAT 29 Nov 10:43:27 10:47:39 44° 286° (WNW) 10:51:50 437.250
NANOSAT C BR1 29 Nov 10:48:10 10:51:28 22° 264° (W) 10:54:45 145.865
BUGSAT 1 29 Nov 10:48:46 10:52:20 26° 263° (W) 10:55:52 437.445
HUMSAT D 29 Nov 10:51:00 10:54:48 34° 287° (WNW) 10:58:39 437.325/437.525
ANTELSAT 29 Nov 10:51:06 10:53:19 14° 266° (W) 10:55:33 437.575/2403.000
VERMONT LUNAR 29 Nov 10:51:28 10:54:17 22° 143° (SE) 10:57:08 437.305
PHONESAT 2.4 29 Nov 10:56:40 10:59:03 16° 141° (SE) 11:01:27 2401.200-2431.200
QB50P1 29 Nov 10:59:19 11:02:00 16° 265° (W) 11:04:41 145.935-145.965
SO-50 29 Nov 11:06:35 11:11:12 41° 57° (ENE) 11:15:49 436.795
UWE-3 29 Nov 11:12:35 11:13:43 11° 293° (WNW) 11:14:50 435.000/436.395/437.385
TISAT 1 29 Nov 11:28:34 11:32:34 43° 99° (E) 11:36:33 437.305
Oscar 19 29 Nov 11:39:00 11:43:02 24° 69° (ENE) 11:47:05 437.125/150
YUBILEINY 29 Nov 11:39:08 11:45:26 22° 71° (ENE) 11:51:41 435.215
SPROUT 29 Nov 11:50:20 11:54:36 73° 102° (ESE) 11:58:52 437.525
CUSAT 1 29 Nov 11:52:46 11:55:26 62° 97° (E) 11:58:00 437.405
ESTCUBE 1 29 Nov 12:04:57 12:07:44 16° 292° (WNW) 12:10:31 437.505/2401.250
CUBEBUG 1 29 Nov 12:21:12 12:22:04 11° 294° (WNW) 12:22:56 437.445
ITUPSAT 1 29 Nov 12:26:24 12:30:20 25° 97° (E) 12:34:15 437.325
VERMONT LUNAR 29 Nov 12:28:58 12:32:32 62° 337° (NNW) 12:36:07 437.305
PHONESAT 2.4 29 Nov 12:33:49 12:37:30 82° 334° (NNW) 12:41:13 2401.200-2431.200
SWISSCUBE 29 Nov 12:35:25 12:39:48 35° 98° (E) 12:44:08 437.505
DANDE 29 Nov 12:36:28 12:38:46 24° 281° (W) 12:40:58 436.750
ITAMSAT 1 29 Nov 12:39:55 12:44:40 37° 71° (ENE) 12:49:25 435.822/435.867
AUBIESAT-1 29 Nov 12:41:24 12:45:55 38° 102° (ESE) 12:50:13 437.475
SO-50 29 Nov 12:48:01 12:51:26 19° 251° (WSW) 12:54:50 436.795
M-CUBED/EXP-1 PRIME 29 Nov 12:49:15 12:54:02 52° 104° (ESE) 12:58:34 437.505
BEESAT 29 Nov 13:05:18 13:10:05 72° 102° (ESE) 13:14:50 436.000
TISAT 1 29 Nov 13:06:15 13:07:59 12° 293° (WNW) 13:09:43 437.305
AO-7 29 Nov 13:11:22 13:15:01 14° 53° (NE) 13:18:40 29.400- 29.500
Oscar 19 29 Nov 13:17:39 13:22:10 32° 262° (W) 13:26:42 437.125/150
STARS 29 Nov 13:19:35 13:20:19 10° 93° (E) 13:21:03 437.465
MaSat-1 29 Nov 13:23:14 13:26:14 71° 111° (ESE) 13:28:59 437.345
RS-15 29 Nov 13:33:17 13:42:30 32° 105° (ESE) 13:51:34 29.354- 29.394
YUBILEINY 29 Nov 13:34:14 13:42:49 67° 268° (W) 13:51:22 435.215
Gurwin Techsat 1B 29 Nov 13:34:24 13:39:41 73° 75° (ENE) 13:44:59 435.225
O/OREOS (USA 219) 29 Nov 13:47:10 13:49:38 14° 61° (ENE) 13:52:05 437.305
ITUPSAT 1 29 Nov 14:04:08 14:08:07 27° 290° (WNW) 14:12:05 437.325
KKS-1 29 Nov 14:05:18 14:09:43 64° 101° (ESE) 14:14:06 437.445
VERMONT LUNAR 29 Nov 14:08:22 14:11:24 25° 353° (N) 14:14:27 437.305
PHONESAT 2.4 29 Nov 14:13:23 14:16:37 28° 350° (N) 14:19:51 2401.200-2431.200
SWISSCUBE 29 Nov 14:14:00 14:17:22 19° 292° (WNW) 14:20:43 437.505
AUBIESAT-1 29 Nov 14:17:02 14:20:32 20° 297° (WNW) 14:23:57 437.475
HORYU 2 29 Nov 14:18:14 14:22:39 90° 86° (E) 14:27:06 437.375
ITAMSAT 1 29 Nov 14:20:17 14:24:11 21° 264° (W) 14:28:06 435.822/435.867
JAS-2 29 Nov 14:23:51 14:26:48 13° 58° (ENE) 14:29:46 435.910
M-CUBED/EXP-1 PRIME 29 Nov 14:25:42 14:28:32 16° 299° (WNW) 14:31:18 437.505
STARS 29 Nov 14:52:46 14:57:02 52° 286° (WNW) 15:01:18 437.465
AO-7 29 Nov 14:58:10 15:06:24 76° 71° (ENE) 15:14:43 29.400- 29.500
Gurwin Techsat 1B 29 Nov 15:19:33 15:20:04 10° 269° (W) 15:20:36 435.225
O/OREOS (USA 219) 29 Nov 15:24:58 15:29:12 42° 255° (WSW) 15:33:26 437.305
MOZHAYETS 4 29 Nov 15:39:41 15:42:35 16° 94° (E) 15:45:29
RS-15 29 Nov 15:43:19 15:54:05 60° 303° (WNW) 16:04:52 29.354- 29.394
VERMONT LUNAR 29 Nov 15:47:22 15:50:31 27° 10° (N) 15:53:40 437.305
PHONESAT 2.4 29 Nov 15:52:53 15:56:04 26° 7° (N) 15:59:14 2401.200-2431.200
Cubesat XI-IV 29 Nov 15:53:27 15:55:21 12° 63° (ENE) 15:57:14 437.490
JAS-2 29 Nov 16:02:52 16:10:27 73° 74° (ENE) 16:18:17 435.910
CUTE-I 29 Nov 16:30:39 16:35:10 29° 69° (ENE) 16:39:41 437.470
AO-7 29 Nov 16:54:30 16:59:46 18° 266° (W) 17:05:05 29.400- 29.500
PRISM 29 Nov 16:59:25 17:02:27 19° 96° (E) 17:05:26 437.425
MOZHAYETS 4 29 Nov 17:15:36 17:19:54 38° 287° (WNW) 17:24:10
BEESAT 2 29 Nov 17:17:12 17:18:44 12° 107° (ESE) 17:20:17 435.950
VERMONT LUNAR 29 Nov 17:25:39 17:29:17 84° 26° (NNE) 17:32:54 437.305
Cubesat XI-IV 29 Nov 17:29:23 17:34:44 73° 258° (WSW) 17:40:07 437.490
GONETS M04 29 Nov 17:29:37 17:36:33 25° 72° (ENE) 17:43:24
PHONESAT 2.4 29 Nov 17:31:33 17:35:15 65° 24° (NNE) 17:38:56 2401.200-2431.200
CUBESAT XI-V 29 Nov 17:32:27 17:35:38 18° 94° (E) 17:38:48 437.345
PCSat 29 Nov 17:40:51 17:46:03 51° 111° (ESE) 17:51:17 145.827
JAS-2 29 Nov 17:50:45 17:55:56 20° 269° (W) 18:01:15 435.910
STRAND 1 29 Nov 18:02:59 18:07:43 38° 99° (E) 18:12:24 437.568
RS-15 29 Nov 18:03:21 18:09:23 16° 330° (NNW) 18:15:30 29.354- 29.394
AIST 2 29 Nov 18:08:19 18:11:38 23° 110° (ESE) 18:14:59 435.215
CUTE-I 29 Nov 18:10:30 18:15:06 29° 263° (W) 18:19:43 437.470
AIST 1 29 Nov 18:12:32 18:16:32 35° 91° (E) 18:20:33
BEESAT 3 29 Nov 18:33:30 18:37:32 67° 299° (WNW) 18:41:40 437.485
PRISM 29 Nov 18:34:23 18:37:56 27° 289° (WNW) 18:41:28 437.425
HO-68 29 Nov 18:41:31 18:47:06 25° 63° (ENE) 18:52:41 435.675
BEESAT 2 29 Nov 18:52:38 18:56:33 44° 301° (WNW) 19:00:33 435.950
CUTE 1.7 + AOD 2 29 Nov 18:58:31 19:00:49 15° 68° (ENE) 19:03:07 437.475
VERMONT LUNAR 29 Nov 19:05:11 19:07:25 16° 219° (SW) 19:09:38 437.305
CUBESAT XI-V 29 Nov 19:08:57 19:13:07 34° 288° (WNW) 19:17:14 437.345
PHONESAT 2.4 29 Nov 19:10:54 19:13:48 22° 217° (SW) 19:16:41 2401.200-2431.200
GOMX 1 29 Nov 19:13:21 19:16:20 17° 70° (ENE) 19:19:12 467.674
SEEDS 29 Nov 19:24:47 19:28:15 26° 72° (ENE) 19:31:43 437.485
GONETS M04 29 Nov 19:25:13 19:33:47 59° 269° (W) 19:42:17
PCSat 29 Nov 19:25:56 19:29:43 19° 307° (NW) 19:33:33 145.827
AAUSAT CUBESAT 2 29 Nov 19:33:08 19:36:27 23° 71° (ENE) 19:39:46 437.432
UKube-1 29 Nov 19:42:00 19:44:06 13° 67° (ENE) 19:46:13 .
STRAND 1 29 Nov 19:42:55 19:46:35 20° 293° (WNW) 19:50:15 437.568
AIST 2 29 Nov 19:46:34 19:50:06 26° 305° (NW) 19:53:43 435.215
DOVE 4 29 Nov 19:48:32 19:52:30 30° 73° (ENE) 19:56:18 437.250
Oscar 11 29 Nov 19:49:07 19:52:04 18° 69° (ENE) 19:55:01 145.826/435.025
COMPASS 1 29 Nov 19:50:42 19:54:39 44° 74° (ENE) 19:58:39 437.405
AIST 1 29 Nov 19:51:48 19:54:17 15° 285° (WNW) 19:56:47
CINEMA 3 29 Nov 19:53:55 19:57:01 20° 71° (ENE) 20:00:03 145.822/145.860
CANX-2 29 Nov 19:58:03 20:02:15 89° 78° (ENE) 20:06:30 2200.000
BRITE-PL 29 Nov 20:01:21 20:06:21 88° 79° (E) 20:10:59 437.365/2234.400
ISS 29 Nov 20:18:47 20:21:47 34° 131° (SE) 20:24:48 145.825
DX 1 29 Nov 20:19:42 20:23:46 39° 73° (ENE) 20:27:50 434.975-435.025
HO-68 29 Nov 20:27:20 20:34:19 54° 258° (WSW) 20:41:20 435.675
UWE-3 29 Nov 20:27:26 20:30:50 24° 72° (ENE) 20:34:13 435.000/436.395/437.385
CUTE 1.7 + AOD 2 29 Nov 20:32:31 20:36:23 36° 262° (W) 20:40:18 437.475
CUBEBUG 2 29 Nov 20:35:41 20:39:35 36° 74° (ENE) 20:43:25 437.445
JUGNU 29 Nov 20:49:25 20:53:05 17° 168° (SSE) 20:56:46 437.505
GOMX 1 29 Nov 20:49:50 20:54:12 36° 261° (W) 20:58:20 467.674
DELFI C3 29 Nov 20:51:08 20:55:11 89° 77° (ENE) 20:59:17 145.870
ZACube-1 29 Nov 20:52:14 20:56:10 41° 74° (ENE) 21:00:05 437.345
50 SAT 29 Nov 20:59:06 21:02:14 22° 71° (ENE) 21:05:22 437.505
SEEDS 29 Nov 21:00:58 21:04:01 20° 265° (W) 21:07:05 437.485
VELOX 1 29 Nov 21:08:18 21:12:30 41° 73° (ENE) 21:16:41 145.980
AAUSAT CUBESAT 2 29 Nov 21:08:51 21:12:01 21° 264° (W) 21:15:13 437.432
SRMSAT 29 Nov 21:10:02 21:11:51 11° 163° (SSE) 21:13:41 437.500
ANTELSAT 29 Nov 21:11:00 21:12:38 12° 93° (E) 21:14:16 437.575/2403.000
UKube-1 29 Nov 21:15:43 21:19:51 43° 260° (W) 21:24:01 .
ESTCUBE 1 29 Nov 21:23:13 21:26:40 22° 70° (ENE) 21:30:08 437.505/2401.250
Oscar 11 29 Nov 21:24:13 21:27:59 30° 263° (W) 21:31:46 145.826/435.025
FUNcube-1 29 Nov 21:25:46 21:29:57 73° 259° (WSW) 21:34:07 145.935
DOVE 4 29 Nov 21:27:04 21:30:15 19° 264° (W) 21:33:19 437.250
COMPASS 1 29 Nov 21:29:30 21:30:35 11° 268° (W) 21:31:40 437.405
CINEMA 3 29 Nov 21:30:20 21:34:03 27° 263° (W) 21:37:40 145.822/145.860
CUBEBUG 1 29 Nov 21:34:26 21:38:10 27° 71° (ENE) 21:41:53 437.445
AISAT 29 Nov 21:36:57 21:41:26 87° 257° (WSW) 21:45:55 437.250
HUMSAT D 29 Nov 21:38:39 21:42:46 88° 258° (WSW) 21:46:54 437.325/437.525
POPSAT HIP 1 29 Nov 21:38:41 21:41:09 15° 94° (E) 21:43:36 437.405
DANDE 29 Nov 21:38:45 21:39:57 11° 76° (ENE) 21:41:13 436.750
ISS 29 Nov 21:56:05 21:58:29 19° 325° (NW) 22:00:54 145.825
DX 1 29 Nov 21:57:45 22:00:06 14° 266° (W) 22:02:28 434.975-435.025
TIGRISAT 29 Nov 21:59:50 22:04:09 45° 100° (E) 22:08:33 435.000
UWE-3 29 Nov 22:04:09 22:07:18 20° 264° (W) 22:10:26 435.000/436.395/437.385
POLYITAN 1 29 Nov 22:13:36 22:17:38 42° 99° (E) 22:21:39 437.675
QB50P2 29 Nov 22:13:51 22:17:52 42° 99° (E) 22:21:54 145.880/145.840
CUBEBUG 2 29 Nov 22:14:15 22:16:22 14° 266° (W) 22:18:29 437.445
UNISAT 6 29 Nov 22:15:49 22:20:20 72° 102° (ESE) 22:24:56 437.425
DUCHIFAT 1 29 Nov 22:16:55 22:20:58 45° 100° (E) 22:25:00 145.980
TISAT 1 29 Nov 22:17:55 22:20:58 19° 70° (ENE) 22:24:00 437.305
ZACube-1 29 Nov 22:31:10 22:32:42 12° 267° (W) 22:34:13 437.345
50 SAT 29 Nov 22:34:23 22:37:25 21° 264° (W) 22:40:27 437.505
BUGSAT 1 29 Nov 22:35:15 22:39:16 63° 101° (E) 22:43:15 437.445
